Tracking 20628 objects as of 7-Apr-2020
HD Live streaming from Space Station
objects crossing your sky now

GSTAR 1

Track GSTAR 1 now!
GSTAR 1 is classified as:


NORAD ID: 15677
Int'l Code: 1985-035A
Perigee: 35,746.4 km
Apogee: 35,840.4 km
Inclination: 15.0 °
Period: 1,436.1 minutes
Semi major axis: 42164 km
RCS: 1.6993 m2 (large)
Launch date: May 8, 1985
Source: United States (US)
Launch site: FRENCH GUIANA (FRGUI)
aabbcc
Your satellite tracking list
Your tracking list is empty




NASA's NSSDC Master Catalog

Two Line Element Set (TLE):
1 15677U 85035A   20098.22719201 -.00000123  00000-0  00000+0 0  9996
2 15677  15.0097   7.0984 0011144  17.8168 147.5828  1.00272958102552
Source of the keplerian elements: AFSPC